Flag for U.S.A. Weather past 2 weeks in Kodiak, Alaska, U.S.A.

Now
57 °F

Scattered clouds.


Feels Like: 54 °F
Forecast: 46 / 56 °F
Wind: 13 mph from Southeast

Location: Kodiak Weather Reporting Station

Current Time: Jun 2, 2015 at 1:58:48 PM

Latest Report: Jun 2, 2015 at 12:53 PM


Visibility: 10 mi

Pressure: 29.73 "Hg

Humidity: 53%

Dew point: 40 °F

Location of KodiakLocation

Historic Weather in Kodiak — Graph

°F

Kodiak temperature yesterday

Maximum temperature yesterday: 65 °F (at 6:53 PM)
Minimum temperature yesterday: 51 °F (at 11:53 PM)
Average temperature yesterday: 56 °F

Past Weeks' High & Low Weather Summary

 TemperatureHumidityPressure
High66 °F (May 30, 6:53 PM)100% (May 19, 10:53 AM)30.42 "Hg (May 19, 10:53 AM)
Low37 °F (May 27, 5:53 AM)52% (Jun 1, 6:53 PM)29.74 "Hg (Jun 2, 11:53 AM)
Average50 °F82%30.12 "Hg
* Reported May 18 11:53 AM — Jun 2 11:53 AM, Kodiak, Weather by CustomWeather, © 2015

Note: Actual official high and low records may vary slightly from our data, if they occured in-between our weather recording intervals... More about our weather records

Advertising

Kodiak weather history for previous 24 hours

 ConditionsComfort  
Time TempWeatherWind HumidityBarometerVisibility
11:53 AM
Tue, Jun 2
55 °FBroken clouds.12 mph59%29.74 "Hg10 mi
10:53 AM55 °FBroken clouds.7 mph57%29.74 "Hg10 mi
9:53 AM53 °FBroken clouds.7 mph61%29.75 "Hg10 mi
8:53 AM51 °FBroken clouds.5 mph71%29.75 "Hg10 mi
7:53 AM50 °FBroken clouds.No wind80%29.75 "Hg10 mi
6:53 AM47 °FScattered clouds.3 mph90%29.76 "Hg10 mi
5:53 AM44 °FPassing clouds.5 mph85%29.76 "Hg10 mi
4:53 AM45 °FPassing clouds.6 mph93%29.77 "Hg10 mi
3:53 AM47 °FPassing clouds.5 mph93%29.77 "Hg10 mi
2:53 AM49 °FPassing clouds.3 mph93%29.77 "Hg10 mi
1:53 AM50 °FPassing clouds.7 mph89%29.77 "Hg10 mi
12:53 AM50 °FPartly cloudy.7 mph93%29.77 "Hg10 mi
11:53 PM
Mon, Jun 1
51 °FBroken clouds.7 mph89%29.76 "Hg10 mi
10:53 PM56 °FBroken clouds.7 mph72%29.76 "Hg10 mi
9:53 PM59 °FBroken clouds.7 mph62%29.75 "Hg10 mi
8:53 PM61 °FBroken clouds.10 mph58%29.75 "Hg10 mi
6:53 PM65 °FBroken clouds.10 mph52%29.76 "Hg10 mi
5:53 PM62 °FBroken clouds.6 mph67%29.77 "Hg10 mi
4:53 PM64 °FPartly sunny.8 mph58%29.78 "Hg10 mi
3:53 PM58 °FPartly sunny.7 mph75%29.80 "Hg10 mi
2:53 PM57 °FPartly sunny.10 mph74%29.81 "Hg10 mi
1:53 PM60 °FPartly sunny.5 mph67%29.81 "Hg10 mi
Weather by CustomWeather, © 2015

See weather overviewHow to use our weather pages